TimeCST,TemperatureF,Dew PointF,Humidity,Sea Level PressureIn,VisibilityMPH,Wind Direction,Wind SpeedMPH,Gust SpeedMPH,PrecipitationIn,Events,Conditions,WindDirDegrees,DateUTC
12:15 AM,8.6,1.4,73,30.18,10.0,WNW,9.2,-,N/A,,Clear,290,2013-02-20 06:15:00
12:35 AM,8.6,-0.4,67,30.19,10.0,WNW,9.2,-,N/A,,Clear,290,2013-02-20 06:35:00
12:55 AM,8.6,-0.4,67,30.21,10.0,West,8.1,-,N/A,,Clear,280,2013-02-20 06:55:00
1:15 AM,8.6,-0.4,67,30.21,10.0,West,10.4,-,N/A,,Clear,280,2013-02-20 07:15:00
1:35 AM,8.6,-0.4,67,30.23,10.0,West,11.5,-,N/A,,Clear,280,2013-02-20 07:35:00
1:55 AM,8.6,-0.4,67,30.23,10.0,WNW,9.2,-,N/A,,Clear,290,2013-02-20 07:55:00
2:15 AM,8.6,-0.4,67,30.23,10.0,WNW,10.4,-,N/A,,Clear,300,2013-02-20 08:15:00
2:35 AM,8.6,-0.4,67,30.23,10.0,WNW,12.7,-,N/A,,Clear,300,2013-02-20 08:35:00
2:55 AM,8.6,-0.4,67,30.23,10.0,NW,10.4,-,N/A,,Clear,310,2013-02-20 08:55:00
3:35 AM,8.6,-0.4,67,30.24,10.0,WNW,10.4,-,N/A,,Clear,300,2013-02-20 09:35:00
3:55 AM,8.6,-0.4,67,30.25,10.0,WNW,9.2,-,N/A,,Clear,300,2013-02-20 09:55:00
4:15 AM,8.6,-0.4,67,30.26,10.0,WNW,11.5,-,N/A,,Clear,290,2013-02-20 10:15:00
4:35 AM,8.6,-0.4,67,30.27,10.0,WNW,10.4,-,N/A,,Clear,290,2013-02-20 10:35:00
5:45 AM,6.8,-2.2,67,30.28,10.0,WNW,9.2,-,N/A,,Clear,300,2013-02-20 11:45:00
6:45 AM,6.8,-2.2,67,30.29,10.0,NW,10.4,-,N/A,,Clear,310,2013-02-20 12:45:00
7:45 AM,8.6,-0.4,67,30.30,10.0,NW,11.5,-,N/A,,Clear,310,2013-02-20 13:45:00
9:45 AM,14.0,3.2,62,30.32,10.0,NW,11.5,17.3,N/A,,Clear,320,2013-02-20 15:45:00
1:45 PM,19.4,6.8,58,30.36,10.0,West,9.2,-,N/A,,Clear,280,2013-02-20 19:45:00
2:45 PM,21.2,8.6,58,30.34,10.0,NW,9.2,-,N/A,,Clear,320,2013-02-20 20:45:00
3:45 PM,21.2,8.6,58,30.33,10.0,NW,8.1,-,N/A,,Clear,310,2013-02-20 21:45:00
4:45 PM,21.2,8.6,58,30.32,10.0,NW,5.8,-,N/A,,Clear,320,2013-02-20 22:45:00
5:45 PM,19.4,8.6,63,30.33,10.0,NW,5.8,-,N/A,,Clear,310,2013-02-20 23:45:00
6:45 PM,19.4,8.6,63,30.33,10.0,NW,5.8,-,N/A,,Clear,320,2013-02-21 00:45:00
7:45 PM,15.8,8.6,73,30.32,10.0,West,5.8,-,N/A,,Clear,280,2013-02-21 01:45:00
8:15 PM,15.8,10.4,79,30.33,10.0,WSW,4.6,-,N/A,,Clear,240,2013-02-21 02:15:00
8:35 PM,15.8,10.4,79,30.33,10.0,Calm,Calm,-,N/A,,Clear,0,2013-02-21 02:35:00
8:45 PM,15.8,8.6,73,30.33,10.0,Calm,Calm,-,N/A,,Clear,0,2013-02-21 02:45:00
8:55 PM,15.8,10.4,79,30.33,10.0,Calm,Calm,-,N/A,,Clear,0,2013-02-21 02:55:00
9:15 PM,14.0,8.6,79,30.33,10.0,Calm,Calm,-,N/A,,Clear,0,2013-02-21 03:15:00
9:35 PM,12.2,8.6,85,30.34,10.0,Calm,Calm,-,N/A,,Clear,0,2013-02-21 03:35:00
9:55 PM,14.0,10.4,86,30.34,10.0,Calm,Calm,-,N/A,,Clear,0,2013-02-21 03:55:00
10:15 PM,14.0,10.4,86,30.34,10.0,Calm,Calm,-,N/A,,Clear,0,2013-02-21 04:15:00
10:35 PM,12.2,8.6,85,30.34,10.0,Calm,Calm,-,N/A,,Clear,0,2013-02-21 04:35:00
10:55 PM,12.2,8.6,85,30.35,10.0,Calm,Calm,-,N/A,,Clear,0,2013-02-21 04:55:00
11:15 PM,12.2,8.6,85,30.35,10.0,Calm,Calm,-,N/A,,Clear,0,2013-02-21 05:15:00
11:35 PM,12.2,8.6,85,30.35,10.0,Calm,Calm,-,N/A,,Clear,0,2013-02-21 05:35:00
11:55 PM,12.2,8.6,85,30.35,10.0,NW,3.5,-,N/A,,Clear,320,2013-02-21 05:55:00